FCK2FT EKRK-EKRK

Flight info

Callsign FCK2FT
Flight time 0h 34m
Altitude 4000
Route EKRK DCT EKCH
Aircraft B350/L-V/N

Departure

Time 2026-04-22 14:27
Airport Copenhagen Roskilde Airport (EKRK)

Arrival

Time 2026-04-22 15:01
Airport Copenhagen Roskilde Airport (EKRK)
Time Latitude Longitude Altitude Speed Heading
2026-04-22 14:04 55.59002 12.12866 139 ft 0 kts 117°
2026-04-22 14:19 55.59001 12.12867 139 ft 1 kts 117°
2026-04-22 14:19 55.58958 12.12914 139 ft 0 kts 149°
2026-04-22 14:20 55.58910 12.13040 139 ft 21 kts 110°
2026-04-22 14:20 55.58860 12.13157 139 ft 8 kts 212°
2026-04-22 14:20 55.58813 12.13076 139 ft 8 kts 211°
2026-04-22 14:21 55.58706 12.13239 140 ft 22 kts 115°
2026-04-22 14:21 55.58621 12.13544 139 ft 27 kts 115°
2026-04-22 14:22 55.58502 12.13699 139 ft 7 kts 159°
2026-04-22 14:22 55.58498 12.13702 139 ft 0 kts 160°
2026-04-22 14:26 55.58434 12.13718 140 ft 14 kts 203°
2026-04-22 14:26 55.58404 12.13668 139 ft 0 kts 298°
2026-04-22 14:26 55.58520 12.13264 139 ft 92 kts 291°
2026-04-22 14:26 55.58852 12.11993 588 ft 130 kts 298°
2026-04-22 14:27 55.59296 12.10408 979 ft 157 kts 301°
2026-04-22 14:27 55.59906 12.08699 1376 ft 171 kts 319°
2026-04-22 14:27 55.61026 12.08073 1963 ft 175 kts
2026-04-22 14:27 55.62046 12.09172 2764 ft 180 kts 49°
2026-04-22 14:28 55.62375 12.11328 3555 ft 188 kts 89°
2026-04-22 14:28 55.62188 12.13589 4196 ft 190 kts 94°
2026-04-22 14:28 55.61956 12.16055 4227 ft 214 kts 96°
2026-04-22 14:28 55.61717 12.18547 4226 ft 204 kts 95°
2026-04-22 14:29 55.61304 12.20991 4228 ft 213 kts 120°
2026-04-22 14:29 55.60181 12.22724 4223 ft 219 kts 152°
2026-04-22 14:29 55.58812 12.23902 4221 ft 219 kts 154°
2026-04-22 14:29 55.57509 12.25184 4017 ft 213 kts 146°
2026-04-22 14:30 55.56308 12.26783 3758 ft 218 kts 141°
2026-04-22 14:30 55.55108 12.28471 3577 ft 227 kts 141°
2026-04-22 14:30 55.53862 12.30227 3436 ft 231 kts 141°
2026-04-22 14:30 55.52618 12.31989 3283 ft 228 kts 141°
2026-04-22 14:31 55.51394 12.33754 3140 ft 229 kts 139°
2026-04-22 14:31 55.50236 12.35708 2981 ft 231 kts 133°
2026-04-22 14:31 55.49241 12.37921 2819 ft 230 kts 122°
2026-04-22 14:31 55.48371 12.40284 2721 ft 227 kts 121°
2026-04-22 14:32 55.47596 12.42717 2703 ft 229 kts 105°
2026-04-22 14:32 55.47508 12.45350 2706 ft 205 kts 70°
2026-04-22 14:32 55.48203 12.47327 2707 ft 185 kts 32°
2026-04-22 14:32 55.49360 12.48177 2574 ft 183 kts
2026-04-22 14:33 55.50622 12.48593 2253 ft 172 kts
2026-04-22 14:33 55.51688 12.49014 2030 ft 154 kts 21°
2026-04-22 14:33 55.52636 12.50296 1771 ft 183 kts 34°
2026-04-22 14:33 55.52780 12.50511 1732 ft 184 kts 34°
2026-04-22 14:34 55.53708 12.51910 1484 ft 174 kts 35°
2026-04-22 14:34 55.54625 12.53310 1247 ft 176 kts 36°
2026-04-22 14:34 55.55548 12.54724 998 ft 176 kts 35°
2026-04-22 14:34 55.56459 12.56126 762 ft 176 kts 36°
2026-04-22 14:35 55.57390 12.57554 526 ft 179 kts 38°
2026-04-22 14:35 55.58318 12.58995 298 ft 175 kts 35°
2026-04-22 14:35 55.59237 12.60387 83 ft 175 kts 34°
2026-04-22 14:35 55.60152 12.61796 46 ft 174 kts 36°
2026-04-22 14:36 55.61064 12.63199 50 ft 173 kts 36°
2026-04-22 14:36 55.61661 12.64140 286 ft 169 kts 36°
2026-04-22 14:36 55.62607 12.65251 976 ft 158 kts
2026-04-22 14:36 55.63639 12.65136 1727 ft 150 kts 348°
2026-04-22 14:37 55.64698 12.64814 2426 ft 152 kts 345°
2026-04-22 14:37 55.65571 12.63877 3055 ft 143 kts 321°
2026-04-22 14:37 55.66145 12.62753 3197 ft 130 kts 300°
2026-04-22 14:37 55.66082 12.61063 3202 ft 164 kts 251°
2026-04-22 14:38 55.65370 12.59170 3200 ft 204 kts 238°
2026-04-22 14:38 55.64393 12.57290 3208 ft 212 kts 231°
2026-04-22 14:38 55.63335 12.55432 3217 ft 216 kts 231°
2026-04-22 14:38 55.62261 12.53546 3075 ft 215 kts 231°
2026-04-22 14:39 55.61227 12.51777 2829 ft 202 kts 231°
2026-04-22 14:39 55.60191 12.50122 2565 ft 200 kts 226°
2026-04-22 14:39 55.59100 12.48573 2316 ft 206 kts 225°
2026-04-22 14:40 55.56859 12.45322 2216 ft 212 kts 224°
2026-04-22 14:40 55.55533 12.44113 2209 ft 218 kts 206°
2026-04-22 14:40 55.54044 12.43639 2205 ft 223 kts 177°
2026-04-22 14:40 55.52618 12.44591 2204 ft 211 kts 147°
2026-04-22 14:41 55.51644 12.46397 2202 ft 203 kts 121°
2026-04-22 14:41 55.51130 12.48676 2126 ft 201 kts 94°
2026-04-22 14:41 55.51312 12.50980 1844 ft 180 kts 58°
2026-04-22 14:41 55.52018 12.52618 1710 ft 157 kts 30°
2026-04-22 14:42 55.52960 12.53243 1700 ft 134 kts 358°
2026-04-22 14:42 55.53885 12.53211 1435 ft 137 kts 355°
2026-04-22 14:42 55.54860 12.53343 1198 ft 154 kts 17°
2026-04-22 14:42 55.55747 12.54664 986 ft 177 kts 43°
2026-04-22 14:43 55.56577 12.56192 745 ft 177 kts 39°
2026-04-22 14:43 55.57542 12.57787 489 ft 197 kts 39°
2026-04-22 14:43 55.58526 12.59190 259 ft 170 kts 40°
2026-04-22 14:43 55.59418 12.60650 67 ft 178 kts 37°
2026-04-22 14:44 55.60321 12.62064 46 ft 171 kts 35°
2026-04-22 14:44 55.61224 12.63456 118 ft 170 kts 36°
2026-04-22 14:44 55.62104 12.64838 619 ft 180 kts 33°
2026-04-22 14:44 55.63226 12.65533 1103 ft 169 kts 356°
2026-04-22 14:45 55.64373 12.65235 1611 ft 166 kts 338°
2026-04-22 14:45 55.65185 12.63940 2109 ft 133 kts 296°
2026-04-22 14:45 55.65164 12.62149 2192 ft 164 kts 253°
2026-04-22 14:45 55.64347 12.60626 2196 ft 184 kts 213°
2026-04-22 14:46 55.63127 12.59777 2198 ft 194 kts 206°
2026-04-22 14:46 55.61789 12.58898 2206 ft 212 kts 206°
2026-04-22 14:46 55.60387 12.57953 2215 ft 218 kts 206°
2026-04-22 14:46 55.59075 12.56668 2205 ft 216 kts 223°
2026-04-22 14:47 55.57923 12.55005 2210 ft 213 kts 226°
2026-04-22 14:47 55.56770 12.53335 2204 ft 214 kts 226°
2026-04-22 14:47 55.55611 12.51678 2217 ft 215 kts 225°
2026-04-22 14:47 55.54456 12.49994 2140 ft 218 kts 225°
2026-04-22 14:48 55.53431 12.48522 1751 ft 165 kts 226°
2026-04-22 14:48 55.52528 12.47335 1706 ft 174 kts 224°
2026-04-22 14:48 55.51675 12.46227 1698 ft 121 kts 225°
2026-04-22 14:48 55.51024 12.45506 1686 ft 100 kts 207°
2026-04-22 14:49 55.50343 12.46039 1697 ft 128 kts 122°
2026-04-22 14:49 55.50272 12.47465 1705 ft 119 kts 55°
2026-04-22 14:49 55.50869 12.48255 1705 ft 105 kts 21°
2026-04-22 14:49 55.51491 12.48843 1711 ft 102 kts 10°
2026-04-22 14:50 55.52274 12.49797 1715 ft 162 kts 33°
2026-04-22 14:50 55.53197 12.51124 1611 ft 184 kts 36°
2026-04-22 14:50 55.54201 12.52653 1362 ft 195 kts 37°
2026-04-22 14:50 55.55237 12.54243 1091 ft 199 kts 36°
2026-04-22 14:51 55.56269 12.55833 817 ft 178 kts 37°
2026-04-22 14:51 55.57018 12.57003 637 ft 126 kts 35°
2026-04-22 14:51 55.57655 12.57928 466 ft 114 kts 33°
2026-04-22 14:51 55.58186 12.58764 336 ft 99 kts 32°
2026-04-22 14:52 55.58720 12.59575 198 ft 100 kts 33°
2026-04-22 14:52 55.59239 12.60373 66 ft 98 kts 34°
2026-04-22 14:52 55.59755 12.61168 51 ft 106 kts 37°
2026-04-22 14:52 55.60306 12.62028 33 ft 109 kts 33°
2026-04-22 14:53 55.60855 12.62882 34 ft 103 kts 32°
2026-04-22 14:53 55.61394 12.63700 216 ft 110 kts 31°
2026-04-22 14:53 55.62093 12.64521 718 ft 146 kts 18°
2026-04-22 14:53 55.63136 12.64721 1196 ft 153 kts 350°
2026-04-22 14:54 55.64197 12.64385 1830 ft 157 kts 338°
2026-04-22 14:54 55.65006 12.63093 2471 ft 162 kts 307°
2026-04-22 14:54 55.65613 12.61396 3104 ft 164 kts 306°
2026-04-22 14:54 55.66253 12.59562 3239 ft 185 kts 306°
2026-04-22 14:55 55.66915 12.57638 3483 ft 177 kts 306°
2026-04-22 14:55 55.67535 12.55793 3732 ft 181 kts 306°
2026-04-22 14:55 55.68121 12.53776 3985 ft 192 kts 290°
2026-04-22 14:55 55.68062 12.51307 4047 ft 216 kts 257°
2026-04-22 14:56 55.67396 12.48937 4046 ft 216 kts 246°
2026-04-22 14:56 55.66671 12.46725 4044 ft 214 kts 246°
2026-04-22 14:56 55.65921 12.44464 4043 ft 212 kts 245°
2026-04-22 14:56 55.64979 12.42419 4037 ft 216 kts 232°
2026-04-22 14:57 55.63908 12.40533 4037 ft 217 kts 231°
2026-04-22 14:57 55.62838 12.38651 4038 ft 217 kts 231°
2026-04-22 14:57 55.61799 12.36838 3622 ft 184 kts 231°
2026-04-22 14:57 55.60776 12.35086 3161 ft 218 kts 231°
2026-04-22 14:58 55.59758 12.33291 2705 ft 197 kts 231°
2026-04-22 14:58 55.58805 12.31654 2237 ft 185 kts 231°
2026-04-22 14:58 55.58183 12.29788 1798 ft 173 kts 254°
2026-04-22 14:58 55.57793 12.27809 1605 ft 171 kts 257°
2026-04-22 14:59 55.57440 12.25771 1414 ft 175 kts 257°
2026-04-22 14:59 55.57105 12.23978 1268 ft 145 kts 257°
2026-04-22 14:59 55.56762 12.22318 1143 ft 140 kts 255°
2026-04-22 14:59 55.56606 12.20734 954 ft 123 kts 282°
2026-04-22 15:00 55.56802 12.19453 734 ft 93 kts 299°
2026-04-22 15:00 55.57075 12.18373 642 ft 94 kts 307°
2026-04-22 15:00 55.57375 12.17338 538 ft 96 kts 298°
2026-04-22 15:00 55.57680 12.16268 420 ft 94 kts 297°
2026-04-22 15:01 55.57957 12.15254 317 ft 90 kts 298°
2026-04-22 15:01 55.58237 12.14265 200 ft 89 kts 298°
2026-04-22 15:01 55.58503 12.13317 141 ft 78 kts 298°
2026-04-22 15:01 55.58602 12.12976 138 ft 4 kts 297°
2026-04-22 15:02 55.58656 12.12904 138 ft 11 kts 36°
2026-04-22 15:02 55.58771 12.13035 139 ft 19 kts 33°
2026-04-22 15:02 55.58894 12.13127 139 ft 8 kts 317°
2026-04-22 15:02 55.58928 12.12987 139 ft 17 kts 297°
2026-04-22 15:03 55.58965 12.12854 139 ft 8 kts 303°
2026-04-22 15:03 55.59006 12.12870 139 ft 2 kts 117°
2026-04-22 15:03 55.59005 12.12870 139 ft 0 kts 118°